Location: Bellflower
(33.8817°N, 118.1170°W)
Time: 13:14:44
(UTC+00:00)

Meteor 1-26 Rocket - Pass Details

Date: 23 November 2020
Orbit: 807 x 928 km, 81.3° (Epoch: 21 January)

Event Time Altitude Azimuth Distance (km) Brightness Sun altitude
Rises 14:02:38 0° 345° (NNW) 3,515 7.1 -6.6°
Reaches altitude 10° 14:05:11 10° 341° (NNW) 2,554 6.3 -6.1°
Maximum altitude 14:10:46 51° 267° (W) 1,085 4.5 -5.1°
Drops below altitude 10° 14:16:09 10° 193° (SSW) 2,460 6.8 -4.0°
Sets 14:18:34 0° 188° (S) 3,374 7.5 -3.6°
